Terug naar catalogus

STARLINK-37107

ActiefCommunicatieSSO
NORAD 68294·PAYLOAD·🇺🇸 United States

Gelanceerd Mar 20, 2026 vanaf Vandenberg Space Force Base

Loading…

Volgende Passages (komende 24 uur)

TLE

VersSource: CelesTrak SupGP

Epoch: Sep 15, 2026, 03:17 UTC

1 68294C 26057A   26258.13729167  .00003404  00000+0  10565-3 0  2586
2 68294  97.2852  23.6365 0000964  92.5889 258.1072 15.33442364    10

Volg STARLINK-37107 in realtime met AllMySat

Download on the App Store